Regional Weather Roundup
Issued by NWS

Home | Current Version | Previous Version | Text Only | Print | Product List | Glossary Off
Versions: 1 2 3 4 5 6 7 8 9 10 11 12 13 14 15 16 17 18 19 20 21 22 23 24 25 26 27 28 29 30 31 32 33 34 35 36 37 38 39 40 41 42 43 44 45 46 47 48 49 50

000
ASUS43 KMPX 020710
RWRMN
WEATHER ROUNDUP FOR MINNESOTA
NATIONAL WEATHER SERVICE TWIN CITIES/CHANHASSEN MN
200 AM CDT THU JUL 02 2015


NOTE: "FAIR" INDICATES FEW OR NO CLOUDS BELOW 12,000 FEET WITH NO
SIGNIFICANT WEATHER AND/OR OBSTRUCTIONS TO VISIBILITY. N/A MEANS
CURRENT SKY AND/OR WEATHER CONDITIONS ARE NOT AVAILABLE.

MNZ060>063-068>070-020800-
   Twin Cities Metro

CITY           SKY/WX    TMP DP  RH WIND       PRES   REMARKS
TWIN CITIES    CLEAR     59  54  83 CALM      30.01R
ST PAUL        CLEAR     58  54  86 CALM      30.01S
CRYSTAL        CLEAR     57  52  83 CALM      30.00R
EDEN PRAIRIE   CLEAR     57  54  89 CALM      30.00S
$$
MNZ001>005-007-008-013>017-022>024-027-028-020800-
   Northwest Minnesota

CITY           SKY/WX    TMP DP  RH WIND       PRES   REMARKS
HALLOCK        PTCLDY    61  57  88 S7        29.94S
THIEF RVR FALL CLEAR     61  55  82 S7        29.98S
CROOKSTON      CLEAR     61  55  82 S6        29.98S
FOSSTON        CLEAR     55  54  94 CALM      30.00S
DETROIT LAKES  CLEAR     63  54  72 SW7       30.02S
PARK RAPIDS    MOCLDY    62  56  80 SW3       30.01S
$$
MNZ006-009>011-018-025>026-020800-
   North Central Minnesota

CITY           SKY/WX    TMP DP  RH WIND       PRES   REMARKS
BAUDETTE       CLEAR     57  55  93 CALM      29.95S
INTL FALLS     CLEAR     52  50  93 CALM      29.96S
WASKISH        CLEAR     64  63  94 W5        29.98R
BIG FORK       FOG       55  54  94 CALM      29.98F VSB 3/4
LONGVILLE      CLEAR     61  57  88 CALM      30.00R
GRAND RAPIDS   PTCLDY    61  55  82 S6        30.00S
CRANE LAKE     CLEAR     52  50  93 CALM      29.99S
ORR            CLEAR     59  54  82 CALM      29.96F
COOK           CLEAR     57  55  94 CALM      29.99S
WALKER         PTSUNNY   61  57  87 W6        30.00S
$$
MNZ012-019>021-037-020800-
   Northeast Minnesota

CITY           SKY/WX    TMP DP  RH WIND       PRES   REMARKS
DULUTH         CLEAR     55  49  80 SE3       30.01S
HIBBING        CLEAR     52  51  97 CALM      30.00S FOG
TWO HARBORS    CLEAR     52  46  82 NW1       29.99F
SILVER BAY     CLEAR     48  46  93 CALM      30.00S
GRAND MARAIS     N/A     48  45  89 CALM      30.00F
G MARAIS ARPRT CLEAR     46  39  76 SW3       30.03S
$$
MNZ029>031-032-039>041-046>048-054>057-064-020800-
   West Central Minnesota

CITY           SKY/WX    TMP DP  RH WIND       PRES   REMARKS
WHEATON        CLEAR     52  52 100 SE6       30.01F
ALEXANDRIA     CLEAR     58  54  86 CALM      30.04R
WADENA           N/A     57  55  94 CALM      30.01S
APPLETON       CLEAR     55  50  82 E3        30.00F
WILLMAR        FAIR      55  52  88 CALM      30.03S
$$
MNZ033>034-036-042>043-049>051-058-059-020800-
   Central Minnesota

CITY           SKY/WX    TMP DP  RH WIND       PRES   REMARKS
ST CLOUD       CLEAR     53  52  96 CALM      30.01S
BRAINERD       MOCLDY    59  55  87 SW5       30.01S
BUFFALO        CLEAR     54  50  86 CALM      30.02S
$$
MNZ037-044-045-052-053-020800-
   East Central Minnesota

CITY           SKY/WX    TMP DP  RH WIND       PRES   REMARKS
CAMBRIDGE      CLEAR     57  50  77 CALM      30.00R
MOOSE LAKE     CLOUDY    54  54 100 CALM      29.99S FOG
CLOQUET        CLEAR     54  50  87 CALM      30.01S
$$
MNZ071>073-080-081-089-090-097-098-020800-
   Southwest Minnesota

CITY           SKY/WX    TMP DP  RH WIND       PRES   REMARKS
CANBY          CLEAR     54  51  92 SE3       30.00F
MARSHALL       CLEAR     55  48  76 CALM      30.00S
REDWOOD FALLS  CLEAR     55  51  86 CALM      30.01S
WORTHINGTON    CLEAR     54  48  82 CALM      30.01S
SLAYTON        CLOUDY    56  55  96 CALM      30.02F
$$
MNZ065>067-074>077-082>085-091>093-020800-
   South Central Minnesota

CITY           SKY/WX    TMP DP  RH WIND       PRES   REMARKS
MANKATO        CLEAR     55  48  76 CALM      30.01F
ST JAMES       CLEAR     54  50  87 CALM      30.02S
FAIRMONT       CLEAR     54  45  71 S6        30.01S
OWATONNA       CLEAR     52  46  82 CALM      30.02R
WASECA         CLEAR     52  48  87 CALM      30.03S
$$
MNZ078>079-086>088-094>096-020800-
   Southeast Minnesota

CITY           SKY/WX    TMP DP  RH WIND       PRES   REMARKS
ROCHESTER      CLEAR     55  50  83 CALM      30.02R
RED WING       PTCLDY    54  54 100 CALM      30.00R
STANTON        CLEAR     52  50  93 CALM      30.00S
AUSTIN         CLEAR     52  48  87 CALM      30.02R
$$
ABBREVIATIONS USED IN REMARKS
   TC - TEMPERATURES IN CELSIUS
  WCI - WIND CHILL INDEX
   HX - HEAT INDEX
  VSB - VISIBILITY
$$


USA.gov is the U.S. government's official web portal to all federal, state and local government web resources and services.